Previous Day
Next Day
Current Day
SHEF ID: LVLO2 Skeleton Creek near Lovell, OK
STATION TYPE:
Regulating: Stage = 38.00, Flow = 12490
PRECIP STAGE RIV-FLOW BAT-LOAD
in ft cfs volt
Ccp-Rev Ccp-Rev Ccp-Rev Ccp-Rev
(US/Central)
07/24 00:00 0.00 8.91 20 12.42
07/24 01:00 0.00 8.92 20 12.41
07/24 02:00 0.00 8.92 20 12.40
07/24 03:00 0.00 8.92 20 12.39
07/24 04:00 0.00 8.92 20 12.37
07/24 05:00 0.00 8.93 21 12.37
07/24 06:00 0.00 8.93 21 12.36
07/24 07:00 0.00 8.94 21 12.35
07/24 08:00 0.00 8.94 21 12.40
07/24 09:00 0.00 8.95 21 12.53
07/24 10:00 0.00 8.94 21 12.79
07/24 11:00 0.00 8.96 22 13.16
07/24 12:00 0.00 8.96 22 12.99
07/24 13:00 0.00 8.96 22 12.90
07/24 14:00 0.00 8.95 21 12.84
07/24 15:00 0.00 8.96 22 12.80
07/24 16:00 0.00 8.95 21 12.77
07/24 17:00 0.00 8.94 21 12.77
07/24 18:00 0.00 8.93 21 12.76
07/24 19:00 0.00 8.93 21 12.76
07/24 20:00 0.00 8.93 21 12.75
07/24 21:00 0.00 8.93 21 12.54
07/24 22:00 0.00 8.93 21 12.46
07/24 23:00 0.00 8.93 21 12.43